Regional Weather Roundup
Issued by NWS Midland/Odessa, TX

Skip options and go directly to product.
Home | Oldest Version | Next Version | Current Version | All | Text Only | Save Text | Print | Product List | Glossary On

Skip product version selection by date and time.   
955
ASUS44 KMAF 271802
RWRMAF
MIDLAND AREA WEATHER ROUNDUP
NATIONAL WEATHER SERVICE MIDLAND TX
100 PM CDT SUN JUL 27 2014

...IN SOUTHWEST TEXAS AND SOUTHEAST NEW MEXICO...

CITY           SKY/WX    TMP DP  RH WIND       PRES   REMARKS
ALPINE         MOSUNNY   93  48  21 S5        30.23F
ANDREWS        FAIR      93  60  33 SE15G23   30.12F
ARTESIA        SUNNY     90  57  33 E6        30.14F
BIG SPRING     SUNNY     96  59  28 SE9       30.11F
CARLSBAD       SUNNY     94  55  26 E8        30.10F
DRYDEN           N/A     94  65  38 E13       30.05F
FORT STOCKTON  SUNNY     97  54  23 VRB3      30.07F
GUAD PASS      SUNNY     87  52  29 NE14G22     N/A
HOBBS          SUNNY     91  54  27 E14       30.16S
MARFA          SUNNY     88  54  31 CALM      30.24F
MIDLAND AIRPK  SUNNY     92  62  35 SE9       30.10F
MIDLAND INTL   SUNNY     93  63  36 E10       30.10F
ODESSA         SUNNY     92  60  34 SE13G20   30.11F
PECOS          SUNNY     98  55  24 NE3       30.04F
PRESIDIO       FAIR      96  54  24 NE3       30.06F
SEMINOLE       SUNNY     93  55  27 E10G18    30.14F HAZE
SNYDER         SUNNY     94  61  32 SE8G16    30.09F
WINK           SUNNY     96  59  29 E9G17     30.06F
$$
...OTHER STATIONS IN TEXAS...

CITY           SKY/WX    TMP DP  RH WIND       PRES   REMARKS
ABILENE        SUNNY     95  66  38 SW10      30.06F
AMARILLO       SUNNY     90  62  39 VRB3      30.21F
AUSTIN         MOSUNNY   93  71  48 S8G25     30.05F HX 100
BROWNSVILLE    MOSUNNY   95  71  45 S22G29    30.04F HX 102
CORPUS CHRISTI PTSUNNY   93  74  53 S17G29    30.04F HX 103
DALLAS FTW     MOSUNNY   98  65  33 S13G20    30.01F HX 101
DEL RIO        SUNNY     93  68  43 SE13      30.00F
EL PASO        MOSUNNY   91  53  27 CALM      30.12S
HOUSTON INT    MOSUNNY   93  70  46 S7        30.07F
LUBBOCK        MOSUNNY   94  60  32 N7        30.16F
SAN ANGELO     SUNNY     95  62  33 SW8G17    30.06F
SAN ANTONIO    MOSUNNY   91  71  51 S9        30.06F
WACO           SUNNY     94  69  44 SE10      30.04F
WICHITA FALLS  NOT AVBL
$$
...OTHER LOCATIONS IN NEW MEXICO...

CITY           SKY/WX    TMP DP  RH WIND       PRES   REMARKS
ALAMAGORDO     SUNNY     93  46  20 S16G23    30.14F
ALBUQUERQUE    MOSUNNY   89  50  26 VRB6      30.26F
CANNON AFB     SUNNY     89  59  35 SE5       30.23F
CLOVIS         NOT AVBL
HOLLOMAN AFB   SUNNY     94  50  21 S10G18    30.11F
ROSWELL        SUNNY     90  57  32 MISG      30.15F
RUIDOSO        SUNNY     81  45  28 SE15G25   30.40F
SANTA FE       MOSUNNY   86  48  26 N9        30.35F
TRUTH OR CONSE SUNNY     93  51  23 NE16G23   30.18F
TUCUMCARI      SUNNY     91  55  29 NE15G25   30.21S
$$

USA.gov is the U.S. government's official web portal to all federal, state and local government web resources and services.